Hourly Data Report for May 15, 2020

MIRAMICHI RCS
NEW BRUNSWICK
Current Station Operator: ECCC - MSC

47°00'34.000" N
65°27'54.000" W
33.00 m
8100989
71744
ACQ

Download Data

Hourly Data (May 2020)
Hourly Data Report for May 15, 2020
TIME
LST
Temp Definition
°C
Dew Point Definition
°C
Rel Hum Definition
%
Precip. Amount Definition
mm

Wind Dir Definition
10's deg

Wind Spd Definition
km/h
Visibility Definition
km
Stn Press Definition
kPa
Hmdx Definition


Wind Chill Definition


Weather Definition


00:00 3.8 -4.8 53 LegendMM 31 7   101.09     LegendNANA
01:00 3.0 -3.4 63 LegendMM 29 7   101.12     LegendNANA
02:00 2.3 -3.6 65 LegendMM 27 4   101.13     LegendNANA
03:00 0.3 -3.3 77 LegendMM 27 1   101.16     LegendNANA
04:00 -0.7 -4.1 78 LegendMM 25 3   101.18   -2 LegendNANA
05:00 -1.1 -4.2 80 LegendMM 23 2   101.21   -2 LegendNANA
06:00 1.4 -2.6 75 LegendMM 27 7   101.27     LegendNANA
07:00 5.1 -2.2 59 LegendMM 26 5   101.26     LegendNANA
08:00 8.7 -2.8 44 LegendMM 19 1   101.23     LegendNANA
09:00 12.0 -1.2 40 LegendMM 22 4   101.21     LegendNANA
10:00 14.0 -0.2 38 LegendMM 25 13   101.20     LegendNANA
11:00 14.4 -0.1 37 LegendMM 22 18   101.13     LegendNANA
12:00 15.6 -0.1 34 LegendMM 22 13   101.05     LegendNANA
13:00 15.7 -1.5 31 LegendMM 21 18   100.99     LegendNANA
14:00 17.6 -1.0 28 LegendMM 30 8   100.93     LegendNANA
15:00 17.8 1.6 34 LegendMM 33 10   100.87     LegendNANA
16:00 16.5 4.0 43 LegendMM 7 19   100.84     LegendNANA
17:00 14.9 4.7 50 LegendMM 5 17   100.83     LegendNANA
18:00 13.6 0.8 42 LegendMM 10 22   100.82     LegendNANA
19:00 10.6 3.9 63 LegendMM 6 13   100.83     LegendNANA
20:00 7.7 3.3 74 LegendMM 6 13   100.89     LegendNANA
21:00 6.7 3.0 77 LegendMM 5 12   100.87     LegendNANA
22:00 6.2 2.5 77 LegendMM 5 13   100.91     LegendNANA
23:00 6.3 2.5 77 LegendMM 5 12   100.85     LegendNANA

Notes on Data Quality.

Legend

  • E = Estimated
  • M = Missing
  • NA = Not Available*
  • [empty] = Indicates an unobserved value
Date modified: